Weather History for Conway, SC

Change the Weather History Date:

Sunday, February 2, 2014

  Actual Average Record
Temperature  
Mean Temperature 55 °F -  
Max Temperature 68 °F 59 °F 73 °F (2011)
Min Temperature 42 °F 35 °F 23 °F (2013)
Degree Days  
Heating Degree Days 10    
Growing Degree Days 5 (Base 50)    
Moisture  
Dew Point 49 °F    
Average Humidity 92    
Maximum Humidity 100    
Minimum Humidity 60    
Precipitation  
Precipitation 0.00 in - - ()
Sea Level Pressure  
Sea Level Pressure 30.12 in    
Wind  
Wind Speed 1 mph (SW)    
Max Wind Speed 7 mph    
Max Gust Speed -    
Visibility 5 miles    
Events Fog    
Averages and records for this station are not official NWS values.
T = Trace of Precipitation, MM = Missing Value Source: NWS Daily Summary

Daily Weather History Graph

Daily Weather History Graph

Search for Another Location

Airport:

Trip Planner

Search our weather history database for the weather conditions in past years. The results will help you decide how hot, cold, wet, or windy it might be!

Date:

Astronomy

Feb. 02, 2014 Rise Set
Actual Time 7:12 AM EST 5:48 PM EST
Civil Twilight 6:46 AM EST 6:14 PM EST
Nautical Twilight 6:16 AM EST 6:44 PM EST
Astronomical Twilight 5:47 AM EST 7:13 PM EST
Moon 8:49 AM EST (2/2) 9:17 PM EST (2/2)
Length of Visible Light 11h 28m
Length of Day
10h 35m
Waxing Crescent, 11% of the Moon is Illuminated
Feb 2
Waxing Crescent
Feb 6
First Quarter
Feb 14
Full
Feb 22
Last Quarter
Mar 1
New

Hourly Weather History & Observations

Time (EST) Temp. Windchill Dew Point Humidity Pressure Visibility Wind Dir Wind Speed Gust Speed Precip Events Conditions
12:15 AM 42.8 °F - 42.8 °F 100% 30.15 in 1.8 mi Calm Calm - N/A   Overcast
12:35 AM 42.8 °F - 42.8 °F 100% 30.14 in 4.0 mi Calm Calm - N/A   Overcast
12:55 AM 42.8 °F - 42.8 °F 100% 30.14 in 4.0 mi Calm Calm - N/A   Overcast
1:15 AM 42.8 °F - 42.8 °F 100% 30.14 in 4.0 mi Calm Calm - N/A   Overcast
1:35 AM 42.8 °F 41.1 °F 42.8 °F 100% 30.14 in 4.0 mi SW 3.5 mph - N/A   Overcast
1:55 AM 42.8 °F - 42.8 °F 100% 30.13 in 4.0 mi Calm Calm - N/A   Overcast
2:15 AM 42.8 °F - 42.8 °F 100% 30.13 in 4.0 mi Calm Calm - N/A   Overcast
2:35 AM 42.8 °F - 42.8 °F 100% 30.13 in 4.0 mi Calm Calm - N/A   Overcast
2:55 AM 42.8 °F - 42.8 °F 100% 30.14 in 4.0 mi Calm Calm - N/A   Overcast
3:15 AM 42.8 °F - 42.8 °F 100% 30.14 in 4.0 mi Calm Calm - N/A   Overcast
3:35 AM 42.8 °F - 42.8 °F 100% 30.14 in 3.0 mi Calm Calm - N/A   Overcast
3:55 AM 42.8 °F - 42.8 °F 100% 30.13 in 2.5 mi Calm Calm - N/A   Overcast
4:15 AM 42.8 °F 41.1 °F 42.8 °F 100% 30.14 in 1.8 mi SSW 3.5 mph - N/A   Overcast
4:35 AM 42.8 °F - 42.8 °F 100% 30.14 in 2.5 mi Calm Calm - N/A   Overcast
4:55 AM 42.8 °F - 42.8 °F 100% 30.14 in 3.0 mi Calm Calm - N/A   Overcast
5:15 AM 42.8 °F - 42.8 °F 100% 30.14 in 3.0 mi Calm Calm - N/A   Overcast
5:35 AM 42.8 °F - 42.8 °F 100% 30.14 in 3.0 mi Calm Calm - N/A   Overcast
5:55 AM 42.8 °F - - N/A% 30.15 in 1.8 mi Calm Calm - N/A   Overcast
6:15 AM 42.8 °F - - N/A% 30.14 in 2.0 mi Calm Calm - N/A   Overcast
6:35 AM 42.8 °F - - N/A% 30.14 in 2.0 mi Calm Calm - N/A   Overcast
6:55 AM 42.8 °F 41.1 °F - N/A% 30.15 in 1.0 mi South 3.5 mph - N/A   Overcast
7:15 AM 42.8 °F - - N/A% 30.15 in 0.5 mi Calm Calm - N/A Fog Fog
7:35 AM 42.8 °F - - N/A% 30.14 in 0.5 mi Calm Calm - N/A Fog Fog
7:55 AM 42.8 °F 40.1 °F 42.8 °F 100% 30.14 in 0.2 mi South 4.6 mph - N/A Fog Fog
8:15 AM 42.8 °F 41.1 °F 42.8 °F 100% 30.15 in 0.2 mi South 3.5 mph - N/A Fog Fog
8:35 AM 42.8 °F 39.3 °F 42.8 °F 100% 30.15 in 0.2 mi South 5.8 mph - N/A Fog Fog
8:55 AM 44.6 °F 43.1 °F 44.6 °F 100% 30.15 in 0.5 mi South 3.5 mph - N/A Fog Fog
9:15 AM 44.6 °F - 44.6 °F 100% 30.15 in 1.5 mi Calm Calm - N/A   Overcast
9:35 AM 46.4 °F - 46.4 °F 100% 30.16 in 2.5 mi Calm Calm - N/A   Overcast
9:55 AM 46.4 °F 44.3 °F 46.4 °F 100% 30.17 in 4.0 mi WSW 4.6 mph - N/A   Overcast
10:15 AM 46.4 °F 45.2 °F - N/A% 30.18 in 4.0 mi SSW 3.5 mph - N/A   Haze
10:35 AM 50.0 °F - - N/A% 30.18 in 5.0 mi SW 3.5 mph - N/A   Haze
10:55 AM 51.8 °F - 51.8 °F 100% 30.18 in 5.0 mi Calm Calm - N/A   Mostly Cloudy
11:15 AM 51.8 °F - 51.8 °F 100% 30.17 in 4.0 mi WSW 3.5 mph - N/A   Scattered Clouds
11:35 AM 53.6 °F - 53.6 °F 100% 30.18 in 7.0 mi West 3.5 mph - N/A   Clear
11:55 AM 55.4 °F - 55.4 °F 100% 30.17 in 7.0 mi WSW 3.5 mph - N/A   Clear
12:15 PM 57.2 °F - 53.6 °F 88% 30.15 in 7.0 mi West 4.6 mph - N/A   Clear
12:35 PM 59.0 °F - 51.8 °F 77% 30.14 in 5.0 mi SW 4.6 mph - N/A   Haze
12:55 PM 60.8 °F - 53.6 °F 77% 30.14 in 7.0 mi WSW 6.9 mph - N/A   Scattered Clouds
1:15 PM 60.8 °F - 51.8 °F 72% 30.13 in 7.0 mi West 3.5 mph - N/A   Scattered Clouds
1:35 PM 60.8 °F - 51.8 °F 72% 30.12 in 7.0 mi WSW 6.9 mph - N/A   Clear
1:55 PM 62.6 °F - 51.8 °F 68% 30.11 in 7.0 mi West 3.5 mph - N/A   Clear
2:15 PM 62.6 °F - 53.6 °F 72% 30.10 in 7.0 mi SW 4.6 mph - N/A   Clear
2:35 PM 64.4 °F - 53.6 °F 68% 30.09 in 7.0 mi Calm Calm - N/A   Clear
2:55 PM 66.2 °F - 53.6 °F 64% 30.09 in 7.0 mi WNW 4.6 mph - N/A   Clear
3:15 PM 66.2 °F - 51.8 °F 60% 30.09 in 7.0 mi SW 5.8 mph - N/A   Clear
3:35 PM 68.0 °F - 53.6 °F 60% 30.09 in 7.0 mi WSW 3.5 mph - N/A   Clear
3:55 PM 64.4 °F - 51.8 °F 64% 30.09 in 7.0 mi Calm Calm - N/A   Clear
4:15 PM 66.2 °F - 51.8 °F 60% 30.09 in 7.0 mi Calm Calm - N/A   Clear
4:35 PM 66.2 °F - 51.8 °F 60% 30.09 in 7.0 mi WSW 3.5 mph - N/A   Clear
4:55 PM 64.4 °F - 53.6 °F 68% 30.10 in 7.0 mi WSW 3.5 mph - N/A   Clear
5:15 PM 62.6 °F - 53.6 °F 72% 30.09 in 7.0 mi Calm Calm - N/A   Clear
5:35 PM 60.8 °F - 53.6 °F 77% 30.09 in 7.0 mi Calm Calm - N/A   Clear
5:55 PM 57.2 °F - 55.4 °F 94% 30.09 in 7.0 mi Calm Calm - N/A   Clear
6:15 PM 55.4 °F - 55.4 °F 100% 30.10 in 7.0 mi Calm Calm - N/A   Clear
6:35 PM 53.6 °F - 53.6 °F 100% 30.10 in 7.0 mi Calm Calm - N/A   Clear
6:55 PM 53.6 °F - 53.6 °F 100% 30.10 in 7.0 mi Calm Calm - N/A   Clear
7:15 PM 51.8 °F - 51.8 °F 100% 30.10 in 7.0 mi Calm Calm - N/A   Clear
7:35 PM 51.8 °F - 51.8 °F 100% 30.09 in 7.0 mi Calm Calm - N/A   Clear
7:55 PM 51.8 °F - 51.8 °F 100% 30.09 in 7.0 mi Calm Calm - N/A   Clear
8:15 PM 50.0 °F - 50.0 °F 100% 30.09 in 7.0 mi Calm Calm - N/A   Clear
8:35 PM 50.0 °F - 50.0 °F 100% 30.09 in 7.0 mi Calm Calm - N/A   Clear
8:55 PM 51.8 °F - 51.8 °F 100% 30.08 in 7.0 mi Calm Calm - N/A   Clear
9:15 PM 50.0 °F - 50.0 °F 100% 30.08 in 7.0 mi Calm Calm - N/A   Clear
9:35 PM 50.0 °F - 50.0 °F 100% 30.08 in 7.0 mi Calm Calm - N/A   Clear
9:55 PM 50.0 °F - 50.0 °F 100% 30.08 in 7.0 mi Calm Calm - N/A   Clear
10:15 PM 50.0 °F - 50.0 °F 100% 30.09 in 7.0 mi Calm Calm - N/A   Clear
10:35 PM 50.0 °F - 50.0 °F 100% 30.09 in 7.0 mi Calm Calm - N/A   Clear
10:55 PM 46.4 °F 45.2 °F 46.4 °F 100% 30.08 in 7.0 mi SSE 3.5 mph - N/A   Clear
11:15 PM 50.0 °F - 50.0 °F 100% 30.07 in 7.0 mi Calm Calm - N/A   Clear
11:35 PM 46.4 °F - 46.4 °F 100% 30.07 in 7.0 mi Calm Calm - N/A   Clear
11:55 PM 46.4 °F - 46.4 °F 100% 30.07 in 5.0 mi Calm Calm - N/A   Clear